TimeAKDT,TemperatureF,Dew PointF,Humidity,Sea Level PressureIn,VisibilityMPH,Wind Direction,Wind SpeedMPH,Gust SpeedMPH,PrecipitationIn,Events,Conditions,WindDirDegrees,DateUTC
12:53 AM,50.0,46.9,89,30.06,10.0,East,6.9,-,N/A,,Mostly Cloudy,80,2013-08-12 08:53:00
1:53 AM,50.0,46.9,89,30.07,10.0,SE,6.9,-,N/A,,Overcast,140,2013-08-12 09:53:00
2:53 AM,52.0,48.9,89,30.07,10.0,ESE,6.9,-,N/A,,Overcast,110,2013-08-12 10:53:00
3:53 AM,48.9,46.9,93,30.06,10.0,ENE,9.2,-,N/A,,Overcast,70,2013-08-12 11:53:00
4:53 AM,48.9,46.9,93,30.07,10.0,ENE,5.8,-,0.00,Rain,Light Rain,70,2013-08-12 12:53:00
5:53 AM,50.0,46.9,89,30.07,10.0,Calm,Calm,-,0.00,,Overcast,0,2013-08-12 13:53:00
6:53 AM,48.9,46.9,93,30.07,10.0,NE,6.9,-,N/A,,Overcast,50,2013-08-12 14:53:00
7:53 AM,48.9,46.0,90,30.06,10.0,ENE,11.5,-,N/A,,Overcast,60,2013-08-12 15:53:00
8:53 AM,46.9,44.1,90,30.07,10.0,East,10.4,-,N/A,,Overcast,90,2013-08-12 16:53:00
9:06 AM,46.4,42.8,87,30.08,10.0,ESE,6.9,-,N/A,,Overcast,110,2013-08-12 17:06:00
9:12 AM,46.4,44.6,93,30.08,10.0,East,9.2,-,N/A,,Overcast,100,2013-08-12 17:12:00
9:26 AM,44.6,44.6,100,30.07,1.0,East,8.1,-,N/A,,Overcast,90,2013-08-12 17:26:00
9:31 AM,44.6,44.6,100,30.06,0.5,ENE,5.8,-,N/A,Fog,Fog,70,2013-08-12 17:31:00
9:53 AM,44.1,43.0,96,30.06,0.5,NE,11.5,-,0.00,Fog-Rain,Light Rain,50,2013-08-12 17:53:00
9:57 AM,44.6,42.8,93,30.05,1.0,NE,10.4,-,0.00,Rain,Light Rain,50,2013-08-12 17:57:00
10:22 AM,44.6,42.8,93,30.06,3.0,ENE,9.2,-,0.00,Rain,Light Rain,70,2013-08-12 18:22:00
10:53 AM,43.0,42.1,97,30.06,3.0,ENE,12.7,-,0.00,,Overcast,60,2013-08-12 18:53:00
11:01 AM,42.8,42.8,100,30.05,1.8,ENE,11.5,-,0.01,,Overcast,60,2013-08-12 19:01:00
11:11 AM,44.6,42.8,93,30.05,3.0,ENE,10.4,-,0.01,,Overcast,70,2013-08-12 19:11:00
11:53 AM,45.0,43.0,93,30.06,10.0,East,10.4,-,0.01,,Overcast,90,2013-08-12 19:53:00
12:53 PM,48.0,45.0,89,30.06,10.0,Variable,4.6,-,0.00,Rain,Light Rain,0,2013-08-12 20:53:00
1:14 PM,48.2,46.4,93,30.05,10.0,ESE,3.5,-,0.00,,Overcast,120,2013-08-12 21:14:00
1:53 PM,51.1,46.9,86,30.06,10.0,SE,4.6,-,0.00,,Overcast,140,2013-08-12 21:53:00
2:22 PM,51.8,48.2,88,30.05,10.0,Variable,3.5,-,N/A,,Overcast,0,2013-08-12 22:22:00
2:41 PM,50.0,46.4,87,30.05,10.0,WNW,5.8,-,N/A,,Overcast,290,2013-08-12 22:41:00
2:53 PM,51.1,46.9,86,30.06,10.0,NW,6.9,-,N/A,,Overcast,310,2013-08-12 22:53:00
3:53 PM,53.1,48.0,83,30.06,10.0,NNW,4.6,-,N/A,,Scattered Clouds,330,2013-08-12 23:53:00
4:53 PM,55.0,48.9,80,30.06,10.0,Calm,Calm,-,N/A,,Scattered Clouds,0,2013-08-13 00:53:00
5:53 PM,57.0,50.0,77,30.05,10.0,ENE,3.5,-,N/A,,Scattered Clouds,60,2013-08-13 01:53:00
6:53 PM,53.1,48.0,83,30.06,10.0,WNW,5.8,-,N/A,,Scattered Clouds,290,2013-08-13 02:53:00
7:24 PM,50.0,46.4,87,30.06,10.0,West,9.2,-,N/A,,Mostly Cloudy,260,2013-08-13 03:24:00
7:34 PM,48.2,48.2,100,30.06,0.8,WSW,9.2,-,N/A,,Overcast,250,2013-08-13 03:34:00
7:39 PM,48.2,48.2,100,30.06,0.5,West,8.1,-,N/A,Fog,Fog,260,2013-08-13 03:39:00
7:53 PM,48.0,46.9,96,30.06,0.1,West,8.1,-,N/A,Fog,Fog,260,2013-08-13 03:53:00
8:53 PM,45.0,44.1,97,30.06,0.2,SW,5.8,-,N/A,Fog,Fog,230,2013-08-13 04:53:00
9:00 PM,44.6,44.6,100,30.06,0.1,WSW,4.6,-,N/A,Fog,Fog,250,2013-08-13 05:00:00
9:19 PM,44.6,44.6,100,30.06,0.1,WSW,8.1,-,N/A,Fog,Fog,240,2013-08-13 05:19:00
9:46 PM,44.6,42.8,93,30.06,0.1,WSW,8.1,-,N/A,Fog,Fog,250,2013-08-13 05:46:00
9:53 PM,43.0,42.1,97,30.06,0.1,WSW,9.2,-,N/A,Fog,Fog,250,2013-08-13 05:53:00
10:53 PM,43.0,42.1,97,30.08,0.1,WSW,10.4,-,0.00,Fog,Light Drizzle,250,2013-08-13 06:53:00
11:27 PM,42.8,42.8,100,30.07,0.1,West,8.1,-,0.00,Fog,Light Drizzle,270,2013-08-13 07:27:00
11:53 PM,44.1,43.0,96,30.08,0.1,West,5.8,-,0.00,Fog,Light Drizzle,270,2013-08-13 07:53:00